Location: Del Amo
(33.8464°N, 118.2104°W)
Time: 18:49:47
(UTC+00:00)

S-56A Canister/Altair - Pass Details

Date: 22 September 2024
Orbit: 636 x 2487 km, 38.9° (Epoch: 14 October)

Event Time Altitude Azimuth Distance (km) Brightness Sun altitude
Rises 06:04:35 0° 288° (WNW) 3,766 11.6 -48.6°
Reaches altitude 10° 06:06:57 10° 283° (WNW) 3,010 10.9 -48.9°
Enters shadow 06:07:50 15° 280° (W) 2,746 10.6 -49.1°
Maximum altitude 06:14:11 50° 210° (SSW) 1,831 - -49.9°
Drops below altitude 10° 06:24:57 10° 140° (SE) 4,413 - -51.2°
Sets 06:29:12 0° 136° (SE) 5,661 - -51.6°
